sat.trackr.live / text

‹ back to catalog

STARLINK-32385

NORAD 61068 · 2024-164U

PAYLOAD ACTIVE UNKNOWN

§ Identity

Operator
Country
US
Launch date
2024-09-13
Launch site
AFWTR
Launch vehicle
Mass (kg)
RCS (m²)

Purposes: comms

External: N2YO · Heavens-Above · Gunter

§ Orbital elements

Epoch: 2026-05-25T03:32:56.990976Z

Period
94.01 min
Inclination
53.1618°
Eccentricity
0.0001262
Mean motion
15.31703059 rev/d
Perigee alt
469.9 km
Apogee alt
471.6 km
Semi-major
6,848.9 km
B*
2.9870e-5
RAAN
95.9815°
Arg perigee
90.5428°
Mean anomaly
269.5718°
Rev number
9,518

§ Raw data

STARLINK-323851 61068U 24164U   26145.14788184  .00000562  00000+0  29870-4 0  99992 61068  53.1618  95.9815 0001262  90.5428 269.5718 15.31703059 95188

JSON: /api/v1/satellites/61068 · /tle

For live sub-satellite position, see the globe view (requires WebGL).

§ Visibility from observer

Set your observer location to see the next 7 days of passes ≥ 10°. The values pass through the URL so the page stays shareable.

No JS? Fill the form by hand. The geolocation button needs JavaScript.